QPF
0.00 0.00 0.00 0.00 0.00 0.00 0.00 0.00 0.00 0.00 0.00 0.00 0.00 0.00 0.00 0.00 0.00 0.00 0.00 0.00 0.00 0.00 0.00 0.00 0.00 0.00 0.00 0.00 0.00 0.00 0.00 0.00 0.00 0.00 0.00 0.00 0.00 0.00 0.00 0.00 0.00 0.00 0.00 0.00
0.00 0.00 0.00 0.00 0.00 0.00 0.00 0.00 0.00 0.00 0.00 0.00 0.00 0.00 0.00 0.00 0.00 0.00 0.00 0.00 0.00 0.00 0.00 0.00 0.00 0.00 0.00 0.00 0.00 0.00 0.00 0.00 0.00 0.00 0.00 0.00 0.00 0.00 0.00 0.00 0.00 0.00 0.00 0.00
0.00 0.00 0.00 0.00 0.00 0.00 0.00 0.00 0.00 0.00 0.00 0.00 0.00 0.00 0.00 0.00 0.00 0.00 0.00 0.00 0.00 0.00 0.00 0.00 0.00 0.00 0.00 0.00 0.00 0.00 0.00 0.00 0.00 0.00 0.00 0.00 0.00 0.00 0.00 0.00 0.00 0.00 0.00 0.00
0.00 0.00 0.00 0.00 0.00 0.00 0.00 0.00 0.00 0.00 0.00 0.00 0.00 0.00 0.00 0.00 0.00 0.00 0.00 0.00 0.00 0.00 0.00 0.00 0.00 0.00 0.00 0.00 0.00 0.00 0.00 0.00 0.00 0.00 0.00 0.00 0.00 0.00 0.00 0.00 0.00 0.00 0.00 0.00
0.00 0.00 0.00 0.00 0.00 0.00 0.00 0.00 0.00 0.00 0.00 0.00 0.00 0.00 0.00 0.00 0.00 0.00 0.00 0.00 0.00 0.00 0.00 0.00 0.00 0.00 0.00 0.00 0.00 0.00 0.00 0.00 0.00 0.00 0.00 0.00 0.00 0.00 0.00 0.00 0.00 0.00 0.00 0.00
0.00 0.00 0.00 0.00 0.00 0.00 0.00 0.00 0.00 0.00 0.00 0.00 0.00 0.00 0.00 0.00 0.00 0.00 0.00 0.00 0.00 0.00 0.00 0.00 0.00 0.00 0.00 0.00 0.00 0.00 0.00 0.00 0.00 0.00 0.00 0.00 0.00 0.00 0.00 0.00 0.00 0.00 0.00 0.00
0.00 0.00 0.00 0.00 0.00 0.00 0.00 0.00 0.00 0.00 0.00 0.00 0.00 0.00 0.00 0.00 0.00 0.00 0.00 0.00 0.00 0.00 0.00 0.00 0.00 0.00 0.00 0.00 0.00 0.00 0.00 0.00 0.00 0.00 0.00 0.00 0.00 0.00 0.00 0.00 0.00 0.00 0.00 0.00
0.00 0.00 0.00 0.00 0.00 0.00 0.00 0.00 0.00 0.00 0.00 0.00 0.00 0.00 0.00 0.00 0.00 0.00 0.00 0.00 0.00 0.00 0.00 0.00 0.00 0.00 0.00 0.00 0.00 0.00 0.00 0.00 0.00 0.00 0.00 0.00 0.00 0.00 0.00 0.00 0.00 0.00 0.00 0.00
0.00 0.00 0.00 0.00 0.00 0.00 0.00 0.00 0.00 0.00 0.00 0.00 0.00 0.00 0.00 0.00 0.00 0.00 0.00 0.00 0.00 0.00 0.00 0.00 0.00 0.00 0.00 0.00 0.00 0.00 0.00 0.00 0.00 0.00 0.00 0.01 0.01 0.01 0.01 0.00 0.00 0.00 0.00 0.00
0.00 0.00 0.00 0.00 0.00 0.00 0.00 0.00 0.00 0.00 0.00 0.00 0.00 0.00 0.00 0.00 0.00 0.00 0.00 0.00 0.00 0.00 0.00 0.00 0.00 0.00 0.00 0.00 0.00 0.00 0.00 0.00 0.00 0.00 0.01 0.01 0.01 0.01 0.01 0.01 0.00 0.00 0.00 0.00
0.00 0.00 0.00 0.00 0.00 0.00 0.00 0.00 0.00 0.00 0.00 0.00 0.00 0.00 0.00 0.00 0.00 0.00 0.00 0.00 0.00 0.00 0.00 0.00 0.00 0.00 0.00 0.00 0.00 0.00 0.00 0.00 0.00 0.01 0.01 0.01 0.02 0.01 0.01 0.01 0.00 0.00 0.00 0.00
0.00 0.00 0.00 0.00 0.00 0.00 0.00 0.00 0.00 0.00 0.00 0.00 0.00 0.00 0.00 0.00 0.00 0.00 0.00 0.00 0.00 0.00 0.00 0.00 0.00 0.00 0.00 0.00 0.00 0.00 0.00 0.00 0.01 0.01 0.01 0.02 0.02 0.01 0.01 0.01 0.00 0.00 0.00 0.00
0.00 0.00 0.00 0.00 0.00 0.00 0.00 0.00 0.00 0.00 0.00 0.00 0.00 0.00 0.00 0.00 0.00 0.00 0.00 0.00 0.00 0.00 0.00 0.00 0.00 0.00 0.00 0.00 0.00 0.00 0.00 0.00 0.01 0.01 0.02 0.01 0.01 0.01 0.01 0.01 0.00 0.00 0.00 0.00
0.00 0.00 0.00 0.00 0.00 0.00 0.00 0.00 0.00 0.00 0.00 0.00 0.00 0.00 0.00 0.00 0.00 0.00 0.00 0.00 0.00 0.00 0.00 0.00 0.00 0.00 0.00 0.00 0.00 0.00 0.00 0.01 0.01 0.02 0.02 0.02 0.01 0.01 0.02 0.01 0.01 0.00 0.00 0.00
0.00 0.00 0.00 0.00 0.00 0.00 0.00 0.00 0.00 0.00 0.00 0.00 0.00 0.00 0.00 0.00 0.00 0.00 0.00 0.00 0.00 0.00 0.00 0.00 0.00 0.00 0.00 0.00 0.00 0.00 0.00 0.01 0.01 0.01 0.01 0.02 0.02 0.02 0.02 0.01 0.01 0.00 0.00 0.00
0.00 0.00 0.00 0.00 0.00 0.00 0.00 0.00 0.00 0.00 0.00 0.00 0.00 0.00 0.00 0.00 0.00 0.00 0.00 0.00 0.00 0.00 0.00 0.00 0.00 0.00 0.00 0.00 0.00 0.00 0.00 0.01 0.01 0.01 0.01 0.02 0.02 0.02 0.02 0.01 0.01 0.00 0.00 0.00
0.00 0.00 0.00 0.00 0.00 0.00 0.00 0.00 0.00 0.00 0.00 0.00 0.00 0.00 0.00 0.00 0.00 0.00 0.00 0.00 0.00 0.00 0.00 0.00 0.00 0.00 0.00 0.00 0.00 0.00 0.00 0.00 0.01 0.01 0.02 0.02 0.02 0.02 0.02 0.01 0.01 0.00 0.00 0.00
0.00 0.00 0.00 0.00 0.00 0.00 0.00 0.00 0.00 0.00 0.00 0.00 0.00 0.00 0.00 0.00 0.00 0.00 0.00 0.00 0.00 0.00 0.00 0.00 0.00 0.00 0.00 0.00 0.00 0.00 0.00 0.00 0.01 0.01 0.02 0.02 0.02 0.02 0.02 0.01 0.01 0.00 0.00 0.00
0.00 0.00 0.01 0.01 0.00 0.00 0.00 0.00 0.00 0.00 0.00 0.00 0.00 0.00 0.00 0.00 0.00 0.00 0.00 0.00 0.00 0.00 0.00 0.00 0.00 0.00 0.00 0.00 0.00 0.00 0.00 0.01 0.01 0.01 0.02 0.02 0.02 0.02 0.02 0.01 0.01 0.00 0.00 0.00
0.00 0.00 0.00 0.00 0.00 0.00 0.00 0.00 0.00 0.00 0.00 0.00 0.00 0.00 0.00 0.00 0.00 0.00 0.00 0.00 0.00 0.00 0.00 0.00 0.00 0.00 0.00 0.00 0.00 0.00 0.00 0.01 0.01 0.02 0.02 0.02 0.02 0.03 0.02 0.02 0.01 0.00 0.00 0.00
0.00 0.00 0.00 0.00 0.00 0.00 0.00 0.00 0.00 0.00 0.00 0.00 0.00 0.00 0.00 0.00 0.00 0.00 0.00 0.00 0.00 0.00 0.00 0.00 0.00 0.00 0.00 0.00 0.00 0.00 0.01 0.01 0.01 0.02 0.02 0.02 0.03 0.03 0.02 0.02 0.01 0.00 0.00 0.00
0.00 0.00 0.00 0.00 0.00 0.00 0.00 0.00 0.00 0.00 0.00 0.00 0.00 0.00 0.00 0.00 0.00 0.00 0.00 0.00 0.00 0.00 0.00 0.00 0.00 0.00 0.00 0.00 0.00 0.00 0.01 0.01 0.02 0.02 0.03 0.03 0.03 0.03 0.02 0.02 0.01 0.00 0.00 0.00
0.00 0.00 0.00 0.00 0.00 0.00 0.00 0.00 0.00 0.00 0.00 0.00 0.00 0.00 0.00 0.00 0.00 0.00 0.00 0.00 0.00 0.00 0.00 0.00 0.00 0.00 0.01 0.01 0.01 0.01 0.01 0.02 0.02 0.03 0.03 0.03 0.03 0.03 0.03 0.02 0.01 0.00 0.00 0.00
0.00 0.00 0.00 0.00 0.00 0.00 0.00 0.00 0.00 0.00 0.00 0.00 0.00 0.00 0.00 0.00 0.00 0.00 0.00 0.00 0.00 0.00 0.00 0.01 0.01 0.01 0.02 0.02 0.02 0.02 0.02 0.03 0.03 0.04 0.04 0.04 0.04 0.03 0.03 0.02 0.01 0.00 0.00 0.00
0.00 0.00 0.00 0.00 0.00 0.00 0.00 0.00 0.00 0.00 0.00 0.00 0.00 0.00 0.00 0.00 0.00 0.00 0.00 0.00 0.01 0.01 0.01 0.01 0.02 0.03 0.03 0.03 0.03 0.03 0.04 0.04 0.05 0.06 0.06 0.05 0.04 0.04 0.03 0.02 0.01 0.00 0.00 0.00
0.00 0.00 0.00 0.00 0.00 0.00 0.00 0.00 0.00 0.00 0.00 0.00 0.00 0.00 0.00 0.00 0.00 0.01 0.01 0.01 0.01 0.02 0.02 0.02 0.03 0.03 0.05 0.05 0.05 0.05 0.06 0.07 0.08 0.08 0.07 0.05 0.05 0.04 0.02 0.01 0.01 0.00 0.00 0.00
0.00 0.00 0.00 0.00 0.00 0.00 0.00 0.00 0.00 0.00 0.00 0.00 0.00 0.00 0.00 0.00 0.00 0.01 0.01 0.02 0.02 0.02 0.03 0.04 0.04 0.06 0.07 0.08 0.08 0.08 0.08 0.09 0.10 0.09 0.08 0.06 0.05 0.03 0.02 0.01 0.01 0.00 0.00 0.00
MSLP
1021.14 1020.92 1020.64 1020.28 1019.82 1019.25 1018.54 1017.68 1016.68 1015.58 1014.42 1013.25 1012.17 1011.24 1010.52 1010.06 1009.86 1009.90 1010.17 1010.59 1011.12 1011.70 1012.29 1012.86 1013.43 1013.99 1014.56 1015.16 1015.81 1016.50 1017.22 1017.95 1018.66 1019.32 1019.91 1020.41 1020.82 1021.13 1021.36 1021.51 1021.57 1021.56 1021.46 1021.26
1020.92 1020.51 1019.99 1019.37 1018.66 1017.86 1016.99 1016.05 1015.05 1014.04 1013.03 1012.08 1011.22 1010.50 1009.96 1009.60 1009.44 1009.45 1009.62 1009.91 1010.29 1010.72 1011.19 1011.69 1012.22 1012.78 1013.39 1014.05 1014.76 1015.51 1016.29 1017.06 1017.81 1018.50 1019.11 1019.63 1020.06 1020.40 1020.64 1020.79 1020.86 1020.83 1020.71 1020.49
1020.73 1020.14 1019.41 1018.57 1017.64 1016.66 1015.65 1014.64 1013.66 1012.73 1011.88 1011.11 1010.45 1009.92 1009.52 1009.24 1009.09 1009.06 1009.13 1009.28 1009.50 1009.79 1010.14 1010.56 1011.04 1011.60 1012.23 1012.94 1013.70 1014.51 1015.34 1016.16 1016.95 1017.67 1018.32 1018.88 1019.34 1019.70 1019.97 1020.14 1020.21 1020.18 1020.04 1019.79
1020.53 1019.80 1018.90 1017.88 1016.79 1015.66 1014.56 1013.52 1012.57 1011.72 1010.99 1010.38 1009.89 1009.50 1009.20 1008.99 1008.84 1008.75 1008.71 1008.73 1008.82 1008.97 1009.21 1009.53 1009.96 1010.49 1011.13 1011.86 1012.66 1013.50 1014.37 1015.23 1016.06 1016.82 1017.51 1018.11 1018.61 1019.02 1019.32 1019.52 1019.60 1019.57 1019.43 1019.16
1020.24 1019.39 1018.37 1017.24 1016.04 1014.84 1013.69 1012.65 1011.73 1010.96 1010.33 1009.84 1009.47 1009.19 1008.97 1008.79 1008.63 1008.49 1008.37 1008.28 1008.24 1008.27 1008.40 1008.64 1009.00 1009.49 1010.11 1010.83 1011.64 1012.49 1013.38 1014.26 1015.11 1015.91 1016.64 1017.28 1017.84 1018.29 1018.64 1018.87 1018.98 1018.97 1018.83 1018.56
1019.73 1018.82 1017.74 1016.55 1015.32 1014.10 1012.95 1011.93 1011.06 1010.36 1009.82 1009.42 1009.14 1008.93 1008.75 1008.59 1008.42 1008.23 1008.04 1007.87 1007.73 1007.67 1007.71 1007.87 1008.17 1008.60 1009.17 1009.86 1010.64 1011.48 1012.36 1013.24 1014.10 1014.92 1015.68 1016.36 1016.96 1017.47 1017.86 1018.14 1018.29 1018.30 1018.18 1017.92
1018.92 1017.98 1016.90 1015.72 1014.52 1013.34 1012.24 1011.28 1010.48 1009.84 1009.37 1009.04 1008.80 1008.63 1008.48 1008.32 1008.14 1007.92 1007.68 1007.45 1007.25 1007.12 1007.09 1007.18 1007.41 1007.78 1008.29 1008.92 1009.65 1010.45 1011.30 1012.16 1013.01 1013.83 1014.61 1015.33 1015.97 1016.52 1016.96 1017.28 1017.47 1017.52 1017.43 1017.21
1017.75 1016.83 1015.80 1014.70 1013.58 1012.50 1011.50 1010.63 1009.91 1009.34 1008.92 1008.63 1008.42 1008.27 1008.12 1007.95 1007.75 1007.52 1007.25 1006.98 1006.75 1006.57 1006.48 1006.52 1006.69 1006.99 1007.43 1008.00 1008.67 1009.41 1010.20 1011.03 1011.86 1012.68 1013.46 1014.20 1014.86 1015.45 1015.92 1016.29 1016.52 1016.61 1016.57 1016.39
1016.27 1015.41 1014.48 1013.50 1012.53 1011.59 1010.73 1009.97 1009.34 1008.85 1008.47 1008.20 1008.00 1007.84 1007.67 1007.49 1007.27 1007.01 1006.73 1006.44 1006.18 1005.97 1005.85 1005.84 1005.95 1006.20 1006.57 1007.07 1007.67 1008.35 1009.10 1009.88 1010.68 1011.48 1012.27 1013.01 1013.68 1014.29 1014.79 1015.18 1015.45 1015.60 1015.60 1015.49
1014.59 1013.82 1013.03 1012.22 1011.43 1010.67 1009.97 1009.35 1008.83 1008.40 1008.06 1007.80 1007.58 1007.39 1007.20 1006.98 1006.73 1006.45 1006.14 1005.83 1005.55 1005.32 1005.16 1005.11 1005.17 1005.36 1005.68 1006.12 1006.66 1007.30 1008.00 1008.75 1009.53 1010.31 1011.08 1011.82 1012.50 1013.11 1013.62 1014.04 1014.34 1014.52 1014.59 1014.55
1012.87 1012.23 1011.61 1011.00 1010.42 1009.86 1009.34 1008.87 1008.45 1008.09 1007.77 1007.50 1007.26 1007.02 1006.77 1006.50 1006.21 1005.89 1005.54 1005.21 1004.89 1004.63 1004.44 1004.34 1004.36 1004.50 1004.77 1005.16 1005.67 1006.26 1006.94 1007.67 1008.43 1009.21 1009.97 1010.70 1011.37 1011.98 1012.50 1012.92 1013.25 1013.47 1013.59 1013.63
1011.33 1010.84 1010.41 1010.01 1009.64 1009.28 1008.94 1008.61 1008.29 1007.98 1007.69 1007.40 1007.11 1006.81 1006.49 1006.15 1005.79 1005.41 1005.01 1004.62 1004.26 1003.95 1003.71 1003.57 1003.54 1003.63 1003.86 1004.22 1004.70 1005.28 1005.95 1006.67 1007.44 1008.21 1008.97 1009.69 1010.36 1010.96 1011.47 1011.90 1012.24 1012.50 1012.68 1012.79
1010.12 1009.79 1009.54 1009.35 1009.19 1009.02 1008.84 1008.63 1008.39 1008.12 1007.83 1007.50 1007.16 1006.78 1006.39 1005.97 1005.53 1005.07 1004.60 1004.14 1003.72 1003.34 1003.04 1002.83 1002.75 1002.79 1002.98 1003.31 1003.78 1004.36 1005.03 1005.77 1006.54 1007.33 1008.09 1008.81 1009.47 1010.06 1010.57 1011.00 1011.36 1011.65 1011.88 1012.06
1009.31 1009.14 1009.08 1009.07 1009.09 1009.08 1009.02 1008.91 1008.72 1008.47 1008.15 1007.79 1007.38 1006.93 1006.45 1005.95 1005.42 1004.88 1004.33 1003.79 1003.28 1002.83 1002.45 1002.17 1002.02 1002.02 1002.16 1002.47 1002.92 1003.51 1004.19 1004.94 1005.73 1006.53 1007.31 1008.03 1008.68 1009.26 1009.77 1010.20 1010.58 1010.90 1011.18 1011.43
1008.90 1008.89 1008.98 1009.13 1009.27 1009.38 1009.40 1009.34 1009.17 1008.91 1008.57 1008.15 1007.68 1007.16 1006.61 1006.02 1005.42 1004.80 1004.17 1003.55 1002.96 1002.42 1001.97 1001.61 1001.39 1001.33 1001.43 1001.71 1002.14 1002.72 1003.41 1004.18 1004.98 1005.79 1006.57 1007.29 1007.95 1008.52 1009.03 1009.47 1009.86 1010.21 1010.54 1010.86
1008.83 1008.94 1009.15 1009.40 1009.63 1009.78 1009.84 1009.78 1009.60 1009.31 1008.92 1008.45 1007.92 1007.35 1006.73 1006.09 1005.43 1004.75 1004.06 1003.38 1002.71 1002.10 1001.57 1001.14 1000.85 1000.73 1000.78 1001.02 1001.43 1002.00 1002.68 1003.45 1004.26 1005.07 1005.84 1006.56 1007.21 1007.78 1008.28 1008.73 1009.14 1009.53 1009.92 1010.30
1008.96 1009.17 1009.45 1009.74 1009.99 1010.14 1010.18 1010.09 1009.86 1009.51 1009.07 1008.55 1007.97 1007.36 1006.71 1006.04 1005.34 1004.63 1003.91 1003.18 1002.47 1001.80 1001.21 1000.73 1000.38 1000.20 1000.20 1000.40 1000.78 1001.32 1001.98 1002.74 1003.53 1004.33 1005.09 1005.79 1006.43 1006.99 1007.49 1007.95 1008.39 1008.81 1009.25 1009.70
1009.17 1009.42 1009.72 1010.01 1010.22 1010.32 1010.29 1010.12 1009.82 1009.41 1008.90 1008.34 1007.73 1007.09 1006.43 1005.76 1005.07 1004.36 1003.63 1002.89 1002.16 1001.47 1000.85 1000.32 999.93 999.71 999.67 999.83 1000.17 1000.67 1001.31 1002.03 1002.79 1003.56 1004.29 1004.97 1005.59 1006.14 1006.64 1007.11 1007.57 1008.04 1008.53 1009.03
1009.35 1009.61 1009.88 1010.10 1010.24 1010.24 1010.10 1009.83 1009.44 1008.95 1008.39 1007.78 1007.15 1006.51 1005.86 1005.21 1004.55 1003.86 1003.16 1002.44 1001.73 1001.04 1000.41 999.87 999.46 999.22 999.15 999.27 999.58 1000.05 1000.64 1001.32 1002.04 1002.77 1003.48 1004.12 1004.72 1005.26 1005.76 1006.24 1006.72 1007.22 1007.75 1008.32
1009.44 1009.67 1009.87 1010.00 1010.01 1009.89 1009.64 1009.25 1008.76 1008.19 1007.57 1006.93 1006.29 1005.66 1005.04 1004.42 1003.79 1003.15 1002.49 1001.81 1001.13 1000.47 999.86 999.33 998.93 998.68 998.60 998.71 998.99 999.42 999.98 1000.62 1001.31 1002.00 1002.66 1003.28 1003.85 1004.37 1004.87 1005.36 1005.86 1006.40 1006.97 1007.58
1009.44 1009.60 1009.71 1009.72 1009.60 1009.35 1008.97 1008.47 1007.89 1007.25 1006.58 1005.92 1005.27 1004.65 1004.04 1003.45 1002.87 1002.26 1001.65 1001.01 1000.37 999.75 999.17 998.68 998.30 998.06 998.00 998.10 998.37 998.79 999.32 999.93 1000.59 1001.24 1001.88 1002.47 1003.03 1003.54 1004.04 1004.54 1005.07 1005.63 1006.23 1006.88
1009.36 1009.43 1009.43 1009.32 1009.07 1008.70 1008.20 1007.61 1006.95 1006.25 1005.55 1004.86 1004.20 1003.58 1002.99 1002.42 1001.85 1001.27 1000.68 1000.08 999.47 998.89 998.35 997.90 997.56 997.36 997.31 997.43 997.72 998.13 998.66 999.25 999.89 1000.53 1001.15 1001.73 1002.28 1002.79 1003.30 1003.81 1004.36 1004.94 1005.57 1006.25
1009.21 1009.19 1009.08 1008.85 1008.49 1008.01 1007.43 1006.76 1006.04 1005.31 1004.57 1003.87 1003.20 1002.57 1001.97 1001.39 1000.82 1000.24 999.66 999.07 998.48 997.93 997.43 997.01 996.71 996.55 996.54 996.70 997.00 997.44 997.97 998.57 999.20 999.84 1000.46 1001.04 1001.60 1002.13 1002.65 1003.19 1003.75 1004.36 1005.01 1005.70
1009.00 1008.88 1008.66 1008.33 1007.89 1007.34 1006.69 1005.98 1005.24 1004.48 1003.73 1003.01 1002.32 1001.67 1001.04 1000.44 999.84 999.24 998.63 998.03 997.45 996.91 996.43 996.05 995.79 995.67 995.71 995.90 996.24 996.70 997.26 997.88 998.52 999.17 999.80 1000.41 1000.98 1001.54 1002.09 1002.65 1003.24 1003.86 1004.54 1005.24
1008.68 1008.47 1008.17 1007.77 1007.26 1006.66 1005.99 1005.26 1004.51 1003.75 1002.99 1002.26 1001.55 1000.87 1000.21 999.56 998.91 998.27 997.63 997.00 996.41 995.87 995.41 995.06 994.84 994.76 994.84 995.08 995.46 995.95 996.53 997.18 997.84 998.51 999.17 999.80 1000.40 1000.98 1001.57 1002.16 1002.78 1003.43 1004.12 1004.84
1008.22 1007.93 1007.56 1007.10 1006.56 1005.94 1005.27 1004.55 1003.80 1003.05 1002.31 1001.57 1000.85 1000.14 999.43 998.73 998.04 997.34 996.66 996.01 995.40 994.86 994.42 994.10 993.91 993.88 994.00 994.28 994.69 995.22 995.82 996.49 997.17 997.86 998.54 999.19 999.83 1000.45 1001.06 1001.69 1002.35 1003.03 1003.73 1004.46
1007.57 1007.21 1006.78 1006.29 1005.73 1005.11 1004.45 1003.76 1003.04 1002.31 1001.58 1000.85 1000.12 999.38 998.65 997.91 997.17 996.45 995.74 995.07 994.46 993.93 993.52 993.23 993.08 993.09 993.26 993.57 994.01 994.56 995.18 995.85 996.55 997.25 997.94 998.61 999.27 999.92 1000.57 1001.23 1001.92 1002.63 1003.36 1004.10
Thickness
5625 5630 5625 5624 5628 5626 5619 5623 5620 5641 5647 5672 5682 5671 5664 5662 5660 5657 5655 5649 5640 5632 5623 5610 5599 5588 5578 5566 5553 5539 5524 5510 5497 5481 5464 5447 5431 5414 5398 5382 5367 5352 5336 5322
5617 5626 5619 5616 5628 5632 5630 5628 5630 5639 5650 5676 5672 5660 5653 5651 5650 5649 5649 5646 5640 5630 5619 5609 5599 5588 5576 5565 5552 5537 5524 5510 5495 5477 5460 5444 5428 5412 5395 5380 5365 5350 5335 5321
5598 5611 5612 5613 5638 5640 5634 5632 5630 5632 5653 5664 5655 5651 5647 5647 5645 5642 5642 5640 5635 5629 5621 5613 5602 5590 5577 5566 5550 5535 5522 5507 5491 5474 5458 5442 5426 5409 5394 5378 5363 5348 5335 5322
5581 5596 5592 5639 5648 5643 5637 5641 5637 5638 5649 5650 5646 5643 5641 5640 5637 5636 5636 5634 5631 5625 5618 5611 5601 5588 5576 5561 5546 5532 5519 5504 5488 5471 5456 5440 5423 5408 5393 5377 5362 5348 5335 5323
5568 5570 5593 5621 5637 5633 5625 5632 5642 5635 5642 5642 5634 5631 5635 5640 5634 5630 5629 5627 5624 5619 5612 5604 5594 5583 5569 5556 5542 5528 5516 5502 5486 5469 5453 5436 5421 5406 5391 5375 5361 5348 5336 5323
5556 5555 5575 5620 5632 5630 5620 5617 5639 5629 5627 5624 5616 5610 5622 5631 5627 5623 5620 5616 5612 5609 5601 5594 5586 5573 5561 5550 5538 5528 5517 5502 5484 5467 5451 5435 5420 5405 5389 5375 5362 5349 5337 5324
5553 5549 5579 5612 5617 5612 5598 5612 5624 5621 5616 5610 5600 5604 5612 5615 5612 5611 5608 5606 5602 5596 5590 5587 5576 5563 5554 5546 5538 5529 5513 5496 5479 5464 5449 5434 5417 5402 5388 5374 5361 5348 5336 5324
5540 5536 5567 5606 5596 5595 5604 5610 5608 5607 5606 5600 5596 5596 5598 5599 5599 5598 5596 5595 5591 5584 5583 5577 5565 5555 5548 5544 5537 5520 5505 5490 5474 5459 5444 5430 5414 5400 5386 5373 5359 5346 5334 5322
5560 5576 5591 5589 5589 5593 5590 5588 5590 5588 5589 5586 5582 5585 5588 5588 5589 5588 5585 5583 5580 5574 5572 5567 5557 5549 5545 5542 5527 5512 5498 5484 5470 5455 5440 5428 5413 5399 5385 5372 5359 5347 5334 5323
5553 5568 5577 5578 5577 5578 5577 5574 5576 5575 5573 5572 5570 5573 5574 5576 5576 5576 5575 5572 5569 5563 5559 5560 5552 5544 5541 5532 5518 5504 5491 5479 5466 5451 5438 5424 5412 5399 5385 5372 5360 5348 5336 5324
5555 5563 5562 5568 5569 5569 5568 5566 5564 5565 5563 5561 5561 5561 5561 5562 5563 5562 5561 5560 5556 5552 5551 5553 5548 5540 5532 5521 5509 5497 5485 5472 5460 5448 5436 5422 5410 5399 5387 5375 5363 5350 5338 5325
5558 5560 5554 5558 5557 5556 5553 5553 5552 5551 5551 5551 5548 5547 5547 5548 5549 5548 5547 5547 5544 5541 5541 5543 5538 5532 5524 5514 5503 5492 5480 5467 5456 5444 5431 5419 5407 5395 5386 5374 5365 5354 5342 5328
5555 5555 5551 5551 5547 5543 5540 5540 5540 5539 5537 5535 5535 5533 5532 5533 5533 5533 5533 5532 5531 5532 5532 5532 5528 5524 5517 5508 5497 5488 5478 5467 5455 5443 5429 5417 5405 5394 5382 5372 5364 5355 5344 5333
5548 5545 5542 5540 5537 5533 5529 5527 5525 5523 5522 5520 5520 5519 5518 5517 5518 5518 5520 5521 5521 5522 5523 5522 5519 5516 5510 5501 5492 5483 5473 5464 5453 5440 5429 5417 5406 5395 5384 5372 5360 5349 5341 5332
5541 5537 5534 5531 5525 5520 5516 5513 5510 5508 5508 5509 5507 5505 5505 5504 5506 5509 5512 5511 5511 5512 5513 5512 5510 5509 5502 5494 5486 5476 5467 5458 5448 5436 5425 5414 5403 5392 5381 5370 5360 5349 5336 5326
5530 5526 5522 5516 5511 5507 5504 5501 5498 5497 5498 5497 5497 5498 5497 5497 5498 5501 5503 5502 5501 5504 5505 5503 5503 5501 5495 5487 5479 5470 5461 5454 5443 5430 5419 5408 5398 5389 5378 5368 5358 5347 5336 5326
5518 5514 5509 5504 5499 5496 5492 5490 5488 5488 5488 5488 5489 5490 5490 5490 5492 5495 5498 5496 5493 5494 5494 5493 5495 5493 5487 5480 5473 5464 5454 5446 5439 5426 5414 5404 5395 5387 5378 5367 5357 5347 5337 5327
5507 5503 5499 5495 5489 5486 5484 5483 5481 5480 5479 5480 5481 5481 5481 5482 5484 5486 5486 5486 5485 5487 5488 5486 5484 5481 5476 5470 5463 5456 5446 5437 5431 5421 5410 5400 5392 5384 5376 5366 5356 5346 5336 5326
5494 5491 5487 5483 5479 5475 5474 5473 5473 5472 5472 5472 5472 5472 5473 5472 5473 5474 5474 5472 5472 5475 5480 5477 5475 5470 5463 5459 5452 5444 5436 5428 5422 5414 5404 5396 5388 5379 5372 5364 5355 5346 5336 5326
5480 5477 5473 5470 5467 5464 5464 5465 5464 5465 5465 5463 5462 5463 5464 5465 5464 5464 5463 5461 5462 5463 5464 5462 5458 5454 5449 5444 5440 5431 5425 5418 5413 5406 5398 5390 5384 5376 5369 5362 5353 5344 5335 5326
5465 5462 5460 5458 5458 5458 5456 5456 5455 5456 5456 5453 5451 5452 5454 5455 5454 5452 5451 5454 5457 5453 5449 5447 5442 5437 5433 5429 5426 5417 5412 5407 5403 5398 5392 5385 5380 5373 5366 5359 5352 5344 5336 5327
5451 5450 5450 5449 5449 5451 5450 5447 5445 5445 5445 5444 5443 5443 5443 5444 5444 5443 5440 5439 5442 5439 5434 5429 5424 5421 5417 5415 5410 5404 5399 5395 5392 5388 5384 5379 5375 5369 5363 5358 5351 5344 5336 5326
5440 5439 5439 5439 5439 5440 5440 5438 5436 5435 5435 5435 5434 5433 5433 5433 5431 5429 5433 5432 5427 5424 5419 5414 5411 5409 5406 5401 5395 5390 5386 5383 5381 5379 5376 5373 5370 5366 5361 5355 5350 5343 5335 5325
5428 5428 5427 5426 5425 5425 5428 5431 5429 5428 5427 5426 5425 5423 5421 5422 5424 5420 5417 5418 5415 5412 5407 5402 5399 5396 5393 5389 5383 5379 5375 5372 5371 5369 5367 5366 5363 5360 5356 5352 5347 5341 5333 5324
5417 5416 5414 5413 5414 5417 5419 5420 5421 5421 5420 5421 5420 5417 5414 5411 5411 5412 5409 5405 5402 5399 5394 5390 5387 5385 5381 5377 5373 5369 5366 5363 5362 5361 5360 5359 5358 5356 5352 5348 5344 5339 5332 5324
5406 5407 5407 5406 5406 5407 5408 5410 5411 5413 5413 5415 5416 5413 5410 5406 5403 5401 5398 5395 5389 5386 5382 5378 5374 5373 5370 5367 5365 5361 5358 5356 5355 5355 5355 5354 5353 5351 5348 5345 5341 5336 5330 5323
5397 5397 5398 5399 5400 5400 5400 5401 5403 5405 5405 5406 5408 5408 5404 5401 5398 5395 5391 5387 5382 5377 5372 5368 5365 5363 5361 5359 5358 5355 5353 5351 5351 5352 5351 5350 5349 5347 5345 5342 5339 5334 5328 5322